Satellite-Ground Cal/Val Region Overpasses Predictions

Prediction of Satellite NPP Overpassing Cal/Val Region: PacNW

Region Location: (Latitude: 10.00, Longitude: 139.50) to (Latitude: 22.70, Longitude: 165.60).

Table of predicted overpasses for the next 14.0 days since TLE Epoch: 12/8/2017
Interval Starting Time Starting Location Ending Time Ending Location
1 12/09/2017 02:10:34 ( 19.08, 165.60) 12/09/2017 02:11:35 ( 22.66, 164.72)
2 12/09/2017 03:49:30 ( 10.04, 142.34) 12/09/2017 03:52:54 ( 22.02, 139.50)
3 12/09/2017 14:39:53 ( 22.67, 164.95) 12/09/2017 14:43:28 ( 10.05, 161.95)
4 12/09/2017 16:21:23 ( 22.66, 139.57) 12/09/2017 16:21:27 ( 22.43, 139.51)
5 12/10/2017 03:30:28 ( 10.03, 147.10) 12/10/2017 03:34:03 ( 22.65, 144.10)
6 12/10/2017 16:02:20 ( 22.68, 144.33) 12/10/2017 16:05:55 ( 10.06, 141.33)
7 12/11/2017 03:11:25 ( 10.02, 151.86) 12/11/2017 03:15:01 ( 22.70, 148.85)
8 12/11/2017 15:43:18 ( 22.69, 149.09) 12/11/2017 15:46:54 ( 10.01, 146.08)
9 12/12/2017 02:52:23 ( 10.01, 156.62) 12/12/2017 02:55:59 ( 22.69, 153.61)
10 12/12/2017 15:24:17 ( 22.64, 153.84) 12/12/2017 15:27:52 ( 10.02, 150.84)
11 12/13/2017 02:33:21 ( 10.05, 161.37) 12/13/2017 02:36:56 ( 22.68, 158.37)
12 12/13/2017 15:05:14 ( 22.65, 158.60) 12/13/2017 15:08:49 ( 10.03, 155.60)
13 12/14/2017 02:14:59 ( 12.39, 165.59) 12/14/2017 02:17:54 ( 22.67, 163.13)
14 12/14/2017 03:55:49 ( 10.05, 140.76) 12/14/2017 03:57:21 ( 15.46, 139.50)
15 12/14/2017 14:46:12 ( 22.66, 163.36) 12/14/2017 14:49:47 ( 10.04, 160.36)
16 12/15/2017 03:36:46 ( 10.04, 145.52) 12/15/2017 03:40:21 ( 22.67, 142.52)
17 12/15/2017 14:30:09 ( 12.11, 165.59) 12/15/2017 14:30:44 ( 10.06, 165.12)
18 12/15/2017 16:08:39 ( 22.67, 142.75) 12/15/2017 16:12:14 ( 10.05, 139.75)
19 12/16/2017 03:17:44 ( 10.03, 150.28) 12/16/2017 03:21:19 ( 22.66, 147.28)
20 12/16/2017 15:49:37 ( 22.68, 147.51) 12/16/2017 15:53:12 ( 10.06, 144.51)
21 12/17/2017 02:58:41 ( 10.02, 155.04) 12/17/2017 03:02:16 ( 22.65, 152.04)
22 12/17/2017 15:30:34 ( 22.69, 152.27) 12/17/2017 15:34:10 ( 10.01, 149.25)
23 12/18/2017 02:39:39 ( 10.02, 159.80) 12/18/2017 02:43:15 ( 22.70, 156.78)
24 12/18/2017 15:11:32 ( 22.69, 157.03) 12/18/2017 15:15:08 ( 10.02, 154.01)
25 12/19/2017 02:20:37 ( 10.01, 164.56) 12/19/2017 02:24:13 ( 22.69, 161.54)
26 12/19/2017 14:52:30 ( 22.64, 161.77) 12/19/2017 14:56:05 ( 10.03, 158.78)
27 12/20/2017 03:43:04 ( 10.01, 143.94) 12/20/2017 03:46:40 ( 22.69, 140.93)
28 12/20/2017 14:34:33 ( 18.84, 165.60) 12/20/2017 14:37:03 ( 10.03, 163.54)
29 12/20/2017 16:14:58 ( 22.64, 141.16) 12/20/2017 16:16:54 ( 15.84, 139.51)
30 12/21/2017 03:24:02 ( 10.00, 148.70) 12/21/2017 03:27:38 ( 22.69, 145.69)
31 12/21/2017 15:55:55 ( 22.65, 145.92) 12/21/2017 15:59:30 ( 10.03, 142.92)
32 12/22/2017 03:05:00 ( 10.06, 153.45) 12/22/2017 03:08:35 ( 22.68, 150.45)


NCC Satellite Cal/Val Overpasses Prediction Service
